Weather History for Staunton, VA

Change the Weather History Date:

Wednesday, January 18, 2012

  Actual Average Record
Temperature  
Mean Temperature 42 °F -  
Max Temperature 51 °F 40 °F 60 °F (2006)
Min Temperature 30 °F 23 °F 6 °F (1997)
Degree Days  
Heating Degree Days 24    
Moisture  
Dew Point 19 °F    
Average Humidity 48    
Maximum Humidity 67    
Minimum Humidity 33    
Precipitation  
Precipitation 0.00 in - - ()
Sea Level Pressure  
Sea Level Pressure 30.02 in    
Wind  
Wind Speed 11 mph (NW)    
Max Wind Speed 20 mph    
Max Gust Speed 29 mph    
Visibility 10 miles    
Events      
Averages and records for this station are not official NWS values.
T = Trace of Precipitation, MM = Missing Value Source: NWS Daily Summary

Daily Weather History Graph

Daily Weather History Graph

Search for Another Location

Airport:

Trip Planner

Search our weather history database for the weather conditions in past years. The results will help you decide how hot, cold, wet, or windy it might be!

Date:

Astronomy

Jan. 18, 2012 Rise Set
Actual Time 7:30 AM EST 5:22 PM EST
Civil Twilight 7:01 AM EST 5:50 PM EST
Nautical Twilight 6:28 AM EST 6:23 PM EST
Astronomical Twilight 5:57 AM EST 6:54 PM EST
Moon 2:57 AM EST 1:00 PM EST
Length of Visible Light 10h 49m
Length of Day
9h 51m
Waning Crescent, 25% of the Moon is Illuminated
Jan 18
Waning Crescent
Jan 23
New
Jan 30
First Quarter
Feb 7
Full
Feb 14
Last Quarter

Hourly Weather History & Observations

Time (EST) Temp. Windchill Dew Point Humidity Pressure Visibility Wind Dir Wind Speed Gust Speed Precip Events Conditions
12:15 AM 51.8 °F - 41.0 °F 67% 29.79 in 10.0 mi West 9.2 mph - N/A   Clear
12:35 AM 51.8 °F - 35.6 °F 54% 29.81 in 10.0 mi West 12.7 mph 20.7 mph N/A   Clear
12:55 AM 50.0 °F - 33.8 °F 54% 29.82 in 10.0 mi WNW 9.2 mph 20.7 mph N/A   Clear
1:15 AM 48.2 °F - 32.0 °F 54% 29.83 in 10.0 mi West 8.1 mph - N/A   Clear
1:35 AM 46.4 °F 43.5 °F 30.2 °F 53% 29.84 in 10.0 mi WSW 5.8 mph - N/A   Clear
1:55 AM 44.6 °F 40.7 °F 30.2 °F 57% 29.85 in 10.0 mi West 6.9 mph - N/A   Clear
2:15 AM 44.6 °F 42.2 °F 30.2 °F 57% 29.87 in 10.0 mi WNW 4.6 mph - N/A   Scattered Clouds
2:55 AM 44.6 °F 37.4 °F 28.4 °F 53% 29.88 in 10.0 mi WNW 16.1 mph 25.3 mph N/A   Overcast
3:15 AM 42.8 °F 35.1 °F 28.4 °F 57% 29.89 in 10.0 mi WNW 16.1 mph 20.7 mph N/A   Overcast
3:35 AM 42.8 °F 37.0 °F 26.6 °F 53% 29.90 in 10.0 mi WNW 10.4 mph - N/A   Mostly Cloudy
3:55 AM 42.8 °F 37.0 °F 26.6 °F 53% 29.91 in 10.0 mi WNW 10.4 mph 15.0 mph N/A   Mostly Cloudy
4:15 AM 41.0 °F 32.8 °F 26.6 °F 57% 29.92 in 10.0 mi WNW 16.1 mph 20.7 mph N/A   Mostly Cloudy
4:35 AM 39.2 °F 30.8 °F 24.8 °F 56% 29.93 in 10.0 mi NW 15.0 mph - N/A   Overcast
4:55 AM 37.4 °F 29.3 °F 23.0 °F 56% 29.94 in 10.0 mi WNW 12.7 mph 17.3 mph N/A   Overcast
5:15 AM 37.4 °F 29.3 °F 21.2 °F 52% 29.95 in 10.0 mi WNW 12.7 mph 18.4 mph N/A   Mostly Cloudy
5:35 AM 37.4 °F 30.3 °F 21.2 °F 52% 29.96 in 10.0 mi WNW 10.4 mph 17.3 mph N/A   Scattered Clouds
5:55 AM 35.6 °F 28.6 °F 21.2 °F 56% 29.96 in 10.0 mi WNW 9.2 mph - N/A   Scattered Clouds
6:15 AM 35.6 °F 30.7 °F 21.2 °F 56% 29.97 in 10.0 mi West 5.8 mph - N/A   Mostly Cloudy
6:35 AM 35.6 °F 25.9 °F 21.2 °F 56% 29.98 in 10.0 mi NW 16.1 mph 21.9 mph N/A   Scattered Clouds
6:55 AM 35.6 °F 25.5 °F 19.4 °F 52% 29.99 in 10.0 mi WNW 17.3 mph 21.9 mph N/A   Clear
7:15 AM 33.8 °F 25.3 °F 17.6 °F 52% 30.00 in 10.0 mi WNW 11.5 mph 24.2 mph N/A   Clear
7:35 AM 33.8 °F 23.2 °F 17.6 °F 52% 30.01 in 10.0 mi WNW 17.3 mph 23.0 mph N/A   Clear
7:55 AM 33.8 °F 22.5 °F 17.6 °F 52% 30.02 in 10.0 mi WNW 19.6 mph 28.8 mph N/A   Clear
8:15 AM 33.8 °F 23.5 °F 17.6 °F 52% 30.05 in 10.0 mi WNW 16.1 mph 21.9 mph N/A   Clear
8:35 AM 33.8 °F 24.8 °F 17.6 °F 52% 30.06 in 10.0 mi NW 12.7 mph 19.6 mph N/A   Scattered Clouds
8:55 AM 33.8 °F 25.8 °F 19.4 °F 56% 30.08 in 10.0 mi NW 10.4 mph - N/A   Scattered Clouds
9:15 AM 33.8 °F 24.3 °F 19.4 °F 56% 30.09 in 10.0 mi NW 13.8 mph - N/A   Scattered Clouds
9:35 AM 35.6 °F 26.6 °F 17.6 °F 48% 30.11 in 10.0 mi NW 13.8 mph - N/A   Scattered Clouds
9:55 AM 35.6 °F 28.6 °F 17.6 °F 48% 30.11 in 10.0 mi WNW 9.2 mph 19.6 mph N/A   Scattered Clouds
10:15 AM 33.8 °F 27.7 °F 17.6 °F 52% 30.12 in 10.0 mi NW 6.9 mph - N/A   Overcast
10:35 AM 33.8 °F 25.3 °F 17.6 °F 52% 30.13 in 10.0 mi NW 11.5 mph - N/A   Overcast
10:55 AM 35.6 °F 25.5 °F 17.6 °F 48% 30.13 in 10.0 mi WNW 17.3 mph 20.7 mph N/A   Mostly Cloudy
11:15 AM 35.6 °F 26.2 °F 14.0 °F 41% 30.13 in 10.0 mi WNW 15.0 mph 19.6 mph N/A   Scattered Clouds
11:35 AM 35.6 °F 27.5 °F 14.0 °F 41% 30.12 in 10.0 mi NW 11.5 mph 19.6 mph N/A   Scattered Clouds
11:55 AM 35.6 °F 27.5 °F 14.0 °F 41% 30.12 in 10.0 mi NNW 11.5 mph 19.6 mph N/A   Scattered Clouds
12:15 PM 35.6 °F 27.1 °F 14.0 °F 41% 30.11 in 10.0 mi NW 12.7 mph 18.4 mph N/A   Scattered Clouds
12:35 PM 35.6 °F 28.0 °F 14.0 °F 41% 30.10 in 10.0 mi NW 10.4 mph - N/A   Scattered Clouds
12:55 PM 35.6 °F 28.6 °F 14.0 °F 41% 30.08 in 10.0 mi WNW 9.2 mph - N/A   Clear
1:15 PM 35.6 °F 28.6 °F 14.0 °F 41% 30.07 in 10.0 mi NW 9.2 mph - N/A   Clear
1:35 PM 35.6 °F 29.9 °F 12.2 °F 38% 30.08 in 10.0 mi WNW 6.9 mph - N/A   Scattered Clouds
1:55 PM 35.6 °F 29.9 °F 12.2 °F 38% 30.07 in 10.0 mi NNW 6.9 mph - N/A   Mostly Cloudy
2:15 PM 37.4 °F 31.4 °F 14.0 °F 38% 30.06 in 10.0 mi WNW 8.1 mph - N/A   Mostly Cloudy
2:35 PM 37.4 °F 30.8 °F 14.0 °F 38% 30.07 in 10.0 mi NNW 9.2 mph - N/A   Scattered Clouds
2:55 PM 35.6 °F 27.5 °F 12.2 °F 38% 30.07 in 10.0 mi North 11.5 mph - N/A   Mostly Cloudy
3:15 PM 37.4 °F 29.8 °F 12.2 °F 36% 30.07 in 10.0 mi NW 11.5 mph - N/A   Scattered Clouds
3:35 PM 37.4 °F 30.3 °F 10.4 °F 33% 30.08 in 10.0 mi North 10.4 mph - N/A   Clear
3:55 PM 35.6 °F 27.5 °F 12.2 °F 38% 30.08 in 10.0 mi North 11.5 mph 17.3 mph N/A   Clear
4:15 PM 35.6 °F 28.6 °F 12.2 °F 38% 30.08 in 10.0 mi NNW 9.2 mph - N/A   Clear
4:35 PM 35.6 °F 29.2 °F 12.2 °F 38% 30.08 in 10.0 mi NNW 8.1 mph - N/A   Clear
4:55 PM 33.8 °F 26.4 °F 10.4 °F 38% 30.09 in 10.0 mi North 9.2 mph - N/A   Clear
5:15 PM 32.0 °F 25.6 °F 12.2 °F 44% 30.09 in 10.0 mi North 6.9 mph - N/A   Clear
5:35 PM 32.0 °F 25.6 °F 12.2 °F 44% 30.10 in 10.0 mi North 6.9 mph - N/A   Clear
5:55 PM 32.0 °F 25.6 °F 12.2 °F 44% 30.12 in 10.0 mi North 6.9 mph - N/A   Clear
6:15 PM 32.0 °F 25.6 °F 12.2 °F 44% 30.12 in 10.0 mi NNW 6.9 mph - N/A   Clear
6:35 PM 32.0 °F 24.8 °F 12.2 °F 44% 30.12 in 10.0 mi North 8.1 mph - N/A   Clear
6:55 PM 32.0 °F 26.4 °F 14.0 °F 48% 30.11 in 10.0 mi North 5.8 mph - N/A   Clear
7:15 PM 30.2 °F 25.4 °F 14.0 °F 51% 30.11 in 10.0 mi North 4.6 mph - N/A   Clear
7:35 PM 30.2 °F 26.7 °F 14.0 °F 51% 30.12 in 10.0 mi North 3.5 mph - N/A   Clear
7:55 PM 28.4 °F 23.3 °F 14.0 °F 55% 30.13 in 10.0 mi NNE 4.6 mph - N/A   Clear
8:15 PM 26.6 °F 19.1 °F 15.8 °F 64% 30.11 in 10.0 mi ENE 6.9 mph - N/A   Clear
8:35 PM 28.4 °F 22.2 °F 15.8 °F 59% 30.12 in 10.0 mi NNE 5.8 mph - N/A   Clear
8:55 PM 28.4 °F 24.6 °F 14.0 °F 55% 30.13 in 10.0 mi North 3.5 mph - N/A   Clear
9:15 PM 28.4 °F 24.6 °F 14.0 °F 55% 30.14 in 10.0 mi North 3.5 mph - N/A   Clear
9:35 PM 26.6 °F - 14.0 °F 59% 30.13 in 10.0 mi Calm Calm - N/A   Clear
9:55 PM 26.6 °F 22.6 °F 14.0 °F 59% 30.13 in 10.0 mi North 3.5 mph - N/A   Clear
10:15 PM 26.6 °F - 14.0 °F 59% 30.13 in 10.0 mi Calm Calm - N/A   Clear
10:35 PM 23.0 °F - 14.0 °F 68% 30.14 in 10.0 mi Calm Calm - N/A   Clear
10:55 PM 23.0 °F - 14.0 °F 68% 30.14 in 10.0 mi Calm Calm - N/A   Clear
11:15 PM 23.0 °F - 14.0 °F 68% 30.14 in 10.0 mi Calm Calm - N/A   Clear
11:35 PM 23.0 °F - 14.0 °F 68% 30.13 in 10.0 mi Calm Calm - N/A   Clear
11:55 PM 23.0 °F - 14.0 °F 68% 30.13 in 10.0 mi Calm Calm - N/A   Clear